RADUGA 2 (9416 NORAD) Tracking and Keplerian Element Data

This shows tracking and keplerian element data for the satellite.

Feedback or suggestion? Click here.




ElementValue
Catalog9416
NameRADUGA 2
Epoch Orbit12754
Epoch Day353.99382034
Epoch Year2025
RAAN272.3661
Inclination3.9392
Eccentricity0.0029964
Argument of Perigee31.9113
Mean Anonmoly209.3578
Mean Motion1.0025217
Decay Rate2.2E-07
L11 09416U 76092A 25353.99382034 .00000022 00000+0 00000+0 0 9992
L22 09416 3.9392 272.3661 0029964 31.9113 209.3578 1.00252170127544



Live tracking and technical data element details for RADUGA 2 (NORAD 9416). RADUGA 2 can be tracked NOW for your location showing map with azimuth and elevation plus other details from your city location.







IsCatalogInMostPopularTable: catalog: 9416, numindb: 383
Update: records affected: 1



GetName: 9416 RADUGA 2

Hit Count: updated at: Sat, 14 Mar 2026 03:04:21 GMT